This demonstration page uses our WeatherBlox Daily Observations layout. Learn more.

Left ArrowRight Arrow

Hourly Observations for December 4, 2017

Temp ( °F °C ) Dew Point ( °F °C ) Humidity (%) Winds ( mph kmh ) Pressure ( in mb ) Visibility ( mi km ) Precip ( " mm )
12:53 am 00:53 Clear 53 11.7 52 11.1 96 96 SSE 9 15 29.79 1009 7 11 0.00 0.00
1:47 am 01:47 Clear with Mist and Fog 48 9 48 9 100 100 SSE 8 13 29.88 1012 2 3 0.00 0.00
1:48 am 01:48 Clear with Mist and Fog 49 9.4 49 9.4 100 100 SSE 8 13 29.79 1009 2 3 0.00 0.00
2:05 am 02:05 Clear with Mist and Fog 48 8.9 48 8.9 100 100 SE 8 13 29.88 1012 2 3 0.00 0.00
2:11 am 02:11 Clear with Mist and Fog 48 8.9 48 8.9 100 100 SSE 9 15 29.88 1012 1 1 0.00 0.00
2:22 am 02:22 Mostly Cloudy with Fog 49 9.4 49 9.4 100 100 SSE 5 7 29.85 1011 0 0 0.00 0.00
2:53 am 02:53 Mostly Cloudy with Mist and Fog 48 8.9 48 8.9 100 100 SE 5 7 29.79 1009 1 2 0.00 0.00
2:57 am 02:57 Mostly Clear with Mist and Fog 48 8.9 48 8.9 100 100 SE 5 7 29.88 1012 3 4 0.00 0.00
3:04 am 03:04 Mostly Clear with Mist and Fog 48 8.9 47 8.3 96 96 ESE 6 9 29.88 1012 5 8 0.00 0.00
3:53 am 03:53 Clear 47 8.3 46 7.8 97 97 Calm 29.78 1009 10 16 0.00 0.00
4:44 am 04:44 Mostly Clear with Mist and Fog 45 7.2 45 7.2 100 100 SE 5 7 29.88 1012 2 3 0.00 0.00
4:53 am 04:53 Mostly Clear with Fog 44 6.7 44 6.7 100 100 ESE 6 9 29.80 1009 1 1 0.00 0.00
5:19 am 05:19 Mostly Clear with Mist and Fog 44 6.7 43 6.1 96 96 SE 6 9 29.88 1012 2 2 0.00 0.00
5:38 am 05:38 Mostly Clear with Mist and Fog 45 7.2 45 7.2 100 100 SE 7 11 29.88 1012 3 5 0.00 0.00
5:53 am 05:53 Clear 44 6.7 44 6.7 100 100 SSE 8 13 29.80 1009 8 13 0.00 0.00
6:53 am 06:53 Clear 43 6.1 43 6.1 100 100 S 3 6 29.83 1010 8 13 0.00 0.00
7:53 am 07:53 Sunny 42 5.6 41 5 96 96 NE 7 11 29.87 1011 9 14 0.00 0.00
8:53 am 08:53 Sunny 48 8.9 46 7.8 93 93 SSE 3 6 29.87 1012 10 16 0.00 0.00
9:53 am 09:53 Sunny 56 13.3 44 6.7 65 65 SSW 3 6 29.88 1012 10 16 0.00 0.00
10:53 am 10:53 Sunny 64 17.8 39 3.9 40 40 SW 8 13 29.86 1011 10 16 0.00 0.00
11:53 am 11:53 Sunny 72 22.2 38 3.3 29 29 WSW 13 20 29.83 1010 10 16 0.00 0.00
12:53 pm 12:53 Sunny 74 23.3 37 2.8 26 26 W 14 22 29.80 1009 10 16 0.00 0.00
1:53 pm 13:53 Sunny 77 25 34 1.1 21 21 W 21 33 29.78 1008 10 16 0.00 0.00
2:53 pm 14:53 Sunny 77 25 31 -0.6 18 18 WSW 22 35 29.77 1008 10 16 0.00 0.00
3:53 pm 15:53 Sunny 78 25.6 30 -1.1 17 17 W 17 28 29.77 1008 10 16 0.00 0.00
4:53 pm 16:53 Sunny 76 24.4 31 -0.6 19 19 W 12 19 29.78 1008 10 16 0.00 0.00
5:53 pm 17:53 Clear 68 20 32 0 26 26 W 6 9 29.81 1009 10 16 0.00 0.00
6:53 pm 18:53 Clear 61 16.1 32 0 34 34 SW 5 7 29.85 1011 10 16 0.00 0.00
7:53 pm 19:53 Clear 59 15 32 0 36 36 VRB 3 6 29.88 1012 9 14 0.00 0.00
8:53 pm 20:53 Clear 55 12.8 33 0.6 44 44 Calm 29.88 1012 10 16 0.00 0.00
9:53 pm 21:53 Clear 52 11.1 32 0 47 47 Calm 29.89 1012 10 16 0.00 0.00
10:53 pm 22:53 Clear 53 11.7 32 0 45 45 S 8 13 29.90 1013 10 16 0.00 0.00
11:53 pm 23:53 Clear 51 10.6 33 0.6 50 50 SE 7 11 29.90 1013 10 16 0.00 0.00

Powered by AerisWeather